<?xml version="1.0"?>
<gpx xmlns="http://www.topografix.com/GPX/1/1" xmlns:xsi="http://www.w3.org/2001/XMLSchema-instance" version="1.1" creator="GPX RubyGem 1.0.0 -- http://dougfales.github.io/gpx/" xsi:schemaLocation="http://www.topografix.com/GPX/1/1 http://www.topografix.com/GPX/1/1/gpx.xsd">
  <metadata>
    <name/>
    <time>2026-05-08T14:28:52+00:00</time>
    <bound minlat="90.0" minlon="180.0" maxlat="-90.0" maxlon="-180.0"/>
  </metadata>
  <trk>
    <name/>
    <trkseg>
      <trkpt lat="44.878217" lon="6.745631">
        <time>1970-01-01T00:00:00+00:00</time>
        <ele>1889.0</ele>
      </trkpt>
      <trkpt lat="44.878188" lon="6.745814">
        <time>1970-01-01T00:00:00+00:00</time>
        <ele>1890.0</ele>
      </trkpt>
      <trkpt lat="44.878291" lon="6.745976">
        <time>1970-01-01T00:00:00+00:00</time>
        <ele>1891.0</ele>
      </trkpt>
      <trkpt lat="44.878432" lon="6.746115">
        <time>1970-01-01T00:00:00+00:00</time>
        <ele>1895.0</ele>
      </trkpt>
      <trkpt lat="44.878645" lon="6.746131">
        <time>1970-01-01T00:00:00+00:00</time>
        <ele>1899.0</ele>
      </trkpt>
      <trkpt lat="44.878695" lon="6.746169">
        <time>1970-01-01T00:00:00+00:00</time>
        <ele>1901.0</ele>
      </trkpt>
      <trkpt lat="44.878582" lon="6.746314">
        <time>1970-01-01T00:00:00+00:00</time>
        <ele>1899.0</ele>
      </trkpt>
      <trkpt lat="44.878588" lon="6.746357">
        <time>1970-01-01T00:00:00+00:00</time>
        <ele>1899.0</ele>
      </trkpt>
      <trkpt lat="44.878821" lon="6.746383">
        <time>1970-01-01T00:00:00+00:00</time>
        <ele>1905.0</ele>
      </trkpt>
      <trkpt lat="44.878956" lon="6.746437">
        <time>1970-01-01T00:00:00+00:00</time>
        <ele>1908.0</ele>
      </trkpt>
      <trkpt lat="44.879232" lon="6.74644">
        <time>1970-01-01T00:00:00+00:00</time>
        <ele>1914.0</ele>
      </trkpt>
      <trkpt lat="44.879736" lon="6.746614">
        <time>1970-01-01T00:00:00+00:00</time>
        <ele>1920.0</ele>
      </trkpt>
      <trkpt lat="44.879913" lon="6.746642">
        <time>1970-01-01T00:00:00+00:00</time>
        <ele>1921.0</ele>
      </trkpt>
      <trkpt lat="44.880188" lon="6.746603">
        <time>1970-01-01T00:00:00+00:00</time>
        <ele>1925.0</ele>
      </trkpt>
      <trkpt lat="44.880329" lon="6.746605">
        <time>1970-01-01T00:00:00+00:00</time>
        <ele>1928.0</ele>
      </trkpt>
      <trkpt lat="44.880921" lon="6.746004">
        <time>1970-01-01T00:00:00+00:00</time>
        <ele>1939.0</ele>
      </trkpt>
      <trkpt lat="44.880935" lon="6.745869">
        <time>1970-01-01T00:00:00+00:00</time>
        <ele>1940.0</ele>
      </trkpt>
      <trkpt lat="44.880883" lon="6.74572">
        <time>1970-01-01T00:00:00+00:00</time>
        <ele>1938.0</ele>
      </trkpt>
      <trkpt lat="44.880906" lon="6.745558">
        <time>1970-01-01T00:00:00+00:00</time>
        <ele>1941.0</ele>
      </trkpt>
      <trkpt lat="44.88096" lon="6.745563">
        <time>1970-01-01T00:00:00+00:00</time>
        <ele>1943.0</ele>
      </trkpt>
      <trkpt lat="44.880998" lon="6.745381">
        <time>1970-01-01T00:00:00+00:00</time>
        <ele>1947.0</ele>
      </trkpt>
      <trkpt lat="44.881619" lon="6.744162">
        <time>1970-01-01T00:00:00+00:00</time>
        <ele>1968.0</ele>
      </trkpt>
      <trkpt lat="44.881759" lon="6.743658">
        <time>1970-01-01T00:00:00+00:00</time>
        <ele>1973.0</ele>
      </trkpt>
      <trkpt lat="44.88168" lon="6.743427">
        <time>1970-01-01T00:00:00+00:00</time>
        <ele>1975.0</ele>
      </trkpt>
      <trkpt lat="44.881707" lon="6.743225">
        <time>1970-01-01T00:00:00+00:00</time>
        <ele>1979.0</ele>
      </trkpt>
      <trkpt lat="44.881623" lon="6.74314">
        <time>1970-01-01T00:00:00+00:00</time>
        <ele>1980.0</ele>
      </trkpt>
      <trkpt lat="44.881622" lon="6.743076">
        <time>1970-01-01T00:00:00+00:00</time>
        <ele>1981.0</ele>
      </trkpt>
      <trkpt lat="44.881764" lon="6.742733">
        <time>1970-01-01T00:00:00+00:00</time>
        <ele>1989.0</ele>
      </trkpt>
      <trkpt lat="44.881811" lon="6.742439">
        <time>1970-01-01T00:00:00+00:00</time>
        <ele>1993.0</ele>
      </trkpt>
      <trkpt lat="44.881911" lon="6.74231">
        <time>1970-01-01T00:00:00+00:00</time>
        <ele>1995.0</ele>
      </trkpt>
      <trkpt lat="44.882003" lon="6.742024">
        <time>1970-01-01T00:00:00+00:00</time>
        <ele>1998.0</ele>
      </trkpt>
      <trkpt lat="44.882086" lon="6.741601">
        <time>1970-01-01T00:00:00+00:00</time>
        <ele>2004.0</ele>
      </trkpt>
      <trkpt lat="44.882036" lon="6.741119">
        <time>1970-01-01T00:00:00+00:00</time>
        <ele>2013.0</ele>
      </trkpt>
      <trkpt lat="44.881924" lon="6.740938">
        <time>1970-01-01T00:00:00+00:00</time>
        <ele>2014.0</ele>
      </trkpt>
      <trkpt lat="44.882017" lon="6.740553">
        <time>1970-01-01T00:00:00+00:00</time>
        <ele>2022.0</ele>
      </trkpt>
      <trkpt lat="44.88228" lon="6.740243">
        <time>1970-01-01T00:00:00+00:00</time>
        <ele>2030.0</ele>
      </trkpt>
      <trkpt lat="44.882349" lon="6.740123">
        <time>1970-01-01T00:00:00+00:00</time>
        <ele>2032.0</ele>
      </trkpt>
      <trkpt lat="44.882394" lon="6.740006">
        <time>1970-01-01T00:00:00+00:00</time>
        <ele>2034.0</ele>
      </trkpt>
      <trkpt lat="44.88243" lon="6.739806">
        <time>1970-01-01T00:00:00+00:00</time>
        <ele>2036.0</ele>
      </trkpt>
      <trkpt lat="44.882795" lon="6.739391">
        <time>1970-01-01T00:00:00+00:00</time>
        <ele>2046.0</ele>
      </trkpt>
      <trkpt lat="44.883261" lon="6.739112">
        <time>1970-01-01T00:00:00+00:00</time>
        <ele>2051.0</ele>
      </trkpt>
      <trkpt lat="44.88344" lon="6.738895">
        <time>1970-01-01T00:00:00+00:00</time>
        <ele>2055.0</ele>
      </trkpt>
      <trkpt lat="44.884014" lon="6.73857">
        <time>1970-01-01T00:00:00+00:00</time>
        <ele>2068.0</ele>
      </trkpt>
      <trkpt lat="44.884698" lon="6.737789">
        <time>1970-01-01T00:00:00+00:00</time>
        <ele>2084.0</ele>
      </trkpt>
      <trkpt lat="44.885007" lon="6.737678">
        <time>1970-01-01T00:00:00+00:00</time>
        <ele>2089.0</ele>
      </trkpt>
      <trkpt lat="44.885071" lon="6.737498">
        <time>1970-01-01T00:00:00+00:00</time>
        <ele>2094.0</ele>
      </trkpt>
      <trkpt lat="44.884864" lon="6.737359">
        <time>1970-01-01T00:00:00+00:00</time>
        <ele>2096.0</ele>
      </trkpt>
      <trkpt lat="44.884914" lon="6.737136">
        <time>1970-01-01T00:00:00+00:00</time>
        <ele>2101.0</ele>
      </trkpt>
      <trkpt lat="44.885169" lon="6.736723">
        <time>1970-01-01T00:00:00+00:00</time>
        <ele>2109.0</ele>
      </trkpt>
      <trkpt lat="44.885439" lon="6.736447">
        <time>1970-01-01T00:00:00+00:00</time>
        <ele>2112.0</ele>
      </trkpt>
      <trkpt lat="44.885572" lon="6.736382">
        <time>1970-01-01T00:00:00+00:00</time>
        <ele>2112.0</ele>
      </trkpt>
      <trkpt lat="44.885838" lon="6.735969">
        <time>1970-01-01T00:00:00+00:00</time>
        <ele>2119.0</ele>
      </trkpt>
      <trkpt lat="44.886072" lon="6.735433">
        <time>1970-01-01T00:00:00+00:00</time>
        <ele>2126.0</ele>
      </trkpt>
      <trkpt lat="44.886172" lon="6.735044">
        <time>1970-01-01T00:00:00+00:00</time>
        <ele>2130.0</ele>
      </trkpt>
      <trkpt lat="44.886343" lon="6.734635">
        <time>1970-01-01T00:00:00+00:00</time>
        <ele>2134.0</ele>
      </trkpt>
      <trkpt lat="44.886573" lon="6.733734">
        <time>1970-01-01T00:00:00+00:00</time>
        <ele>2141.0</ele>
      </trkpt>
      <trkpt lat="44.886934" lon="6.732902">
        <time>1970-01-01T00:00:00+00:00</time>
        <ele>2153.0</ele>
      </trkpt>
      <trkpt lat="44.887595" lon="6.731983">
        <time>1970-01-01T00:00:00+00:00</time>
        <ele>2172.0</ele>
      </trkpt>
      <trkpt lat="44.887722" lon="6.731492">
        <time>1970-01-01T00:00:00+00:00</time>
        <ele>2177.0</ele>
      </trkpt>
      <trkpt lat="44.888003" lon="6.731401">
        <time>1970-01-01T00:00:00+00:00</time>
        <ele>2179.0</ele>
      </trkpt>
      <trkpt lat="44.888325" lon="6.731171">
        <time>1970-01-01T00:00:00+00:00</time>
        <ele>2185.0</ele>
      </trkpt>
      <trkpt lat="44.888409" lon="6.731285">
        <time>1970-01-01T00:00:00+00:00</time>
        <ele>2186.0</ele>
      </trkpt>
      <trkpt lat="44.888437" lon="6.731246">
        <time>1970-01-01T00:00:00+00:00</time>
        <ele>2188.0</ele>
      </trkpt>
      <trkpt lat="44.888463" lon="6.73114">
        <time>1970-01-01T00:00:00+00:00</time>
        <ele>2190.0</ele>
      </trkpt>
      <trkpt lat="44.888476" lon="6.730993">
        <time>1970-01-01T00:00:00+00:00</time>
        <ele>2192.0</ele>
      </trkpt>
      <trkpt lat="44.888541" lon="6.731045">
        <time>1970-01-01T00:00:00+00:00</time>
        <ele>2194.0</ele>
      </trkpt>
      <trkpt lat="44.888619" lon="6.731188">
        <time>1970-01-01T00:00:00+00:00</time>
        <ele>2196.0</ele>
      </trkpt>
      <trkpt lat="44.88867" lon="6.731004">
        <time>1970-01-01T00:00:00+00:00</time>
        <ele>2200.0</ele>
      </trkpt>
      <trkpt lat="44.888729" lon="6.730903">
        <time>1970-01-01T00:00:00+00:00</time>
        <ele>2203.0</ele>
      </trkpt>
      <trkpt lat="44.888867" lon="6.730817">
        <time>1970-01-01T00:00:00+00:00</time>
        <ele>2210.0</ele>
      </trkpt>
      <trkpt lat="44.88897" lon="6.730837">
        <time>1970-01-01T00:00:00+00:00</time>
        <ele>2213.0</ele>
      </trkpt>
      <trkpt lat="44.889113" lon="6.731099">
        <time>1970-01-01T00:00:00+00:00</time>
        <ele>2218.0</ele>
      </trkpt>
      <trkpt lat="44.889178" lon="6.730855">
        <time>1970-01-01T00:00:00+00:00</time>
        <ele>2221.0</ele>
      </trkpt>
      <trkpt lat="44.889215" lon="6.731046">
        <time>1970-01-01T00:00:00+00:00</time>
        <ele>2223.0</ele>
      </trkpt>
      <trkpt lat="44.88926" lon="6.73099">
        <time>1970-01-01T00:00:00+00:00</time>
        <ele>2225.0</ele>
      </trkpt>
      <trkpt lat="44.889291" lon="6.731044">
        <time>1970-01-01T00:00:00+00:00</time>
        <ele>2226.0</ele>
      </trkpt>
      <trkpt lat="44.889364" lon="6.731042">
        <time>1970-01-01T00:00:00+00:00</time>
        <ele>2229.0</ele>
      </trkpt>
      <trkpt lat="44.889479" lon="6.731004">
        <time>1970-01-01T00:00:00+00:00</time>
        <ele>2230.0</ele>
      </trkpt>
      <trkpt lat="44.889565" lon="6.730921">
        <time>1970-01-01T00:00:00+00:00</time>
        <ele>2231.0</ele>
      </trkpt>
      <trkpt lat="44.88965" lon="6.730692">
        <time>1970-01-01T00:00:00+00:00</time>
        <ele>2233.0</ele>
      </trkpt>
      <trkpt lat="44.889722" lon="6.730583">
        <time>1970-01-01T00:00:00+00:00</time>
        <ele>2233.0</ele>
      </trkpt>
      <trkpt lat="44.889931" lon="6.730515">
        <time>1970-01-01T00:00:00+00:00</time>
        <ele>2232.0</ele>
      </trkpt>
      <trkpt lat="44.890082" lon="6.730392">
        <time>1970-01-01T00:00:00+00:00</time>
        <ele>2233.0</ele>
      </trkpt>
      <trkpt lat="44.890239" lon="6.730344">
        <time>1970-01-01T00:00:00+00:00</time>
        <ele>2233.0</ele>
      </trkpt>
      <trkpt lat="44.890474" lon="6.730319">
        <time>1970-01-01T00:00:00+00:00</time>
        <ele>2233.0</ele>
      </trkpt>
      <trkpt lat="44.890551" lon="6.730403">
        <time>1970-01-01T00:00:00+00:00</time>
        <ele>2233.0</ele>
      </trkpt>
      <trkpt lat="44.890689" lon="6.730615">
        <time>1970-01-01T00:00:00+00:00</time>
        <ele>2235.0</ele>
      </trkpt>
      <trkpt lat="44.890792" lon="6.730693">
        <time>1970-01-01T00:00:00+00:00</time>
        <ele>2236.0</ele>
      </trkpt>
      <trkpt lat="44.890821" lon="6.730669">
        <time>1970-01-01T00:00:00+00:00</time>
        <ele>2236.0</ele>
      </trkpt>
      <trkpt lat="44.890936" lon="6.73043">
        <time>1970-01-01T00:00:00+00:00</time>
        <ele>2237.0</ele>
      </trkpt>
      <trkpt lat="44.891117" lon="6.730261">
        <time>1970-01-01T00:00:00+00:00</time>
        <ele>2238.0</ele>
      </trkpt>
      <trkpt lat="44.89124" lon="6.730257">
        <time>1970-01-01T00:00:00+00:00</time>
        <ele>2237.0</ele>
      </trkpt>
      <trkpt lat="44.891516" lon="6.730108">
        <time>1970-01-01T00:00:00+00:00</time>
        <ele>2237.0</ele>
      </trkpt>
      <trkpt lat="44.891596" lon="6.730053">
        <time>1970-01-01T00:00:00+00:00</time>
        <ele>2238.0</ele>
      </trkpt>
      <trkpt lat="44.891788" lon="6.730009">
        <time>1970-01-01T00:00:00+00:00</time>
        <ele>2241.0</ele>
      </trkpt>
      <trkpt lat="44.89231" lon="6.730018">
        <time>1970-01-01T00:00:00+00:00</time>
        <ele>2249.0</ele>
      </trkpt>
      <trkpt lat="44.892491" lon="6.729879">
        <time>1970-01-01T00:00:00+00:00</time>
        <ele>2252.0</ele>
      </trkpt>
      <trkpt lat="44.893069" lon="6.72962">
        <time>1970-01-01T00:00:00+00:00</time>
        <ele>2258.0</ele>
      </trkpt>
      <trkpt lat="44.893333" lon="6.729254">
        <time>1970-01-01T00:00:00+00:00</time>
        <ele>2263.0</ele>
      </trkpt>
      <trkpt lat="44.89351" lon="6.729233">
        <time>1970-01-01T00:00:00+00:00</time>
        <ele>2265.0</ele>
      </trkpt>
      <trkpt lat="44.893542" lon="6.729182">
        <time>1970-01-01T00:00:00+00:00</time>
        <ele>2266.0</ele>
      </trkpt>
      <trkpt lat="44.893563" lon="6.729059">
        <time>1970-01-01T00:00:00+00:00</time>
        <ele>2268.0</ele>
      </trkpt>
      <trkpt lat="44.893615" lon="6.728976">
        <time>1970-01-01T00:00:00+00:00</time>
        <ele>2270.0</ele>
      </trkpt>
      <trkpt lat="44.893753" lon="6.728958">
        <time>1970-01-01T00:00:00+00:00</time>
        <ele>2272.0</ele>
      </trkpt>
      <trkpt lat="44.893967" lon="6.728753">
        <time>1970-01-01T00:00:00+00:00</time>
        <ele>2277.0</ele>
      </trkpt>
      <trkpt lat="44.894006" lon="6.728783">
        <time>1970-01-01T00:00:00+00:00</time>
        <ele>2278.0</ele>
      </trkpt>
      <trkpt lat="44.894029" lon="6.728694">
        <time>1970-01-01T00:00:00+00:00</time>
        <ele>2279.0</ele>
      </trkpt>
      <trkpt lat="44.894152" lon="6.728646">
        <time>1970-01-01T00:00:00+00:00</time>
        <ele>2282.0</ele>
      </trkpt>
      <trkpt lat="44.894319" lon="6.728507">
        <time>1970-01-01T00:00:00+00:00</time>
        <ele>2287.0</ele>
      </trkpt>
      <trkpt lat="44.894587" lon="6.72802">
        <time>1970-01-01T00:00:00+00:00</time>
        <ele>2296.0</ele>
      </trkpt>
      <trkpt lat="44.894771" lon="6.728031">
        <time>1970-01-01T00:00:00+00:00</time>
        <ele>2299.0</ele>
      </trkpt>
      <trkpt lat="44.894878" lon="6.727942">
        <time>1970-01-01T00:00:00+00:00</time>
        <ele>2300.0</ele>
      </trkpt>
      <trkpt lat="44.894965" lon="6.727945">
        <time>1970-01-01T00:00:00+00:00</time>
        <ele>2301.0</ele>
      </trkpt>
      <trkpt lat="44.895086" lon="6.727974">
        <time>1970-01-01T00:00:00+00:00</time>
        <ele>2302.0</ele>
      </trkpt>
      <trkpt lat="44.895135" lon="6.72791">
        <time>1970-01-01T00:00:00+00:00</time>
        <ele>2304.0</ele>
      </trkpt>
      <trkpt lat="44.89521" lon="6.727862">
        <time>1970-01-01T00:00:00+00:00</time>
        <ele>2305.0</ele>
      </trkpt>
      <trkpt lat="44.895125" lon="6.728317">
        <time>1970-01-01T00:00:00+00:00</time>
        <ele>2302.0</ele>
      </trkpt>
      <trkpt lat="44.895144" lon="6.728713">
        <time>1970-01-01T00:00:00+00:00</time>
        <ele>2304.0</ele>
      </trkpt>
      <trkpt lat="44.895174" lon="6.728754">
        <time>1970-01-01T00:00:00+00:00</time>
        <ele>2305.0</ele>
      </trkpt>
      <trkpt lat="44.89522" lon="6.728761">
        <time>1970-01-01T00:00:00+00:00</time>
        <ele>2305.0</ele>
      </trkpt>
      <trkpt lat="44.895292" lon="6.728814">
        <time>1970-01-01T00:00:00+00:00</time>
        <ele>2306.0</ele>
      </trkpt>
      <trkpt lat="44.895537" lon="6.729066">
        <time>1970-01-01T00:00:00+00:00</time>
        <ele>2307.0</ele>
      </trkpt>
      <trkpt lat="44.895585" lon="6.729141">
        <time>1970-01-01T00:00:00+00:00</time>
        <ele>2308.0</ele>
      </trkpt>
      <trkpt lat="44.895606" lon="6.729046">
        <time>1970-01-01T00:00:00+00:00</time>
        <ele>2310.0</ele>
      </trkpt>
      <trkpt lat="44.895642" lon="6.729076">
        <time>1970-01-01T00:00:00+00:00</time>
        <ele>2311.0</ele>
      </trkpt>
      <trkpt lat="44.895691" lon="6.729203">
        <time>1970-01-01T00:00:00+00:00</time>
        <ele>2311.0</ele>
      </trkpt>
      <trkpt lat="44.895723" lon="6.729157">
        <time>1970-01-01T00:00:00+00:00</time>
        <ele>2313.0</ele>
      </trkpt>
      <trkpt lat="44.895763" lon="6.72916">
        <time>1970-01-01T00:00:00+00:00</time>
        <ele>2314.0</ele>
      </trkpt>
      <trkpt lat="44.895771" lon="6.729213">
        <time>1970-01-01T00:00:00+00:00</time>
        <ele>2315.0</ele>
      </trkpt>
      <trkpt lat="44.895795" lon="6.729194">
        <time>1970-01-01T00:00:00+00:00</time>
        <ele>2316.0</ele>
      </trkpt>
      <trkpt lat="44.895879" lon="6.729271">
        <time>1970-01-01T00:00:00+00:00</time>
        <ele>2319.0</ele>
      </trkpt>
      <trkpt lat="44.895898" lon="6.729358">
        <time>1970-01-01T00:00:00+00:00</time>
        <ele>2319.0</ele>
      </trkpt>
      <trkpt lat="44.895995" lon="6.729373">
        <time>1970-01-01T00:00:00+00:00</time>
        <ele>2322.0</ele>
      </trkpt>
      <trkpt lat="44.896023" lon="6.729414">
        <time>1970-01-01T00:00:00+00:00</time>
        <ele>2323.0</ele>
      </trkpt>
      <trkpt lat="44.896064" lon="6.729404">
        <time>1970-01-01T00:00:00+00:00</time>
        <ele>2325.0</ele>
      </trkpt>
      <trkpt lat="44.896092" lon="6.729456">
        <time>1970-01-01T00:00:00+00:00</time>
        <ele>2326.0</ele>
      </trkpt>
      <trkpt lat="44.896137" lon="6.729455">
        <time>1970-01-01T00:00:00+00:00</time>
        <ele>2328.0</ele>
      </trkpt>
      <trkpt lat="44.896159" lon="6.729485">
        <time>1970-01-01T00:00:00+00:00</time>
        <ele>2329.0</ele>
      </trkpt>
      <trkpt lat="44.896137" lon="6.729548">
        <time>1970-01-01T00:00:00+00:00</time>
        <ele>2327.0</ele>
      </trkpt>
      <trkpt lat="44.896162" lon="6.729635">
        <time>1970-01-01T00:00:00+00:00</time>
        <ele>2328.0</ele>
      </trkpt>
      <trkpt lat="44.896257" lon="6.729772">
        <time>1970-01-01T00:00:00+00:00</time>
        <ele>2331.0</ele>
      </trkpt>
      <trkpt lat="44.896288" lon="6.729765">
        <time>1970-01-01T00:00:00+00:00</time>
        <ele>2332.0</ele>
      </trkpt>
      <trkpt lat="44.896313" lon="6.729785">
        <time>1970-01-01T00:00:00+00:00</time>
        <ele>2333.0</ele>
      </trkpt>
      <trkpt lat="44.896362" lon="6.729911">
        <time>1970-01-01T00:00:00+00:00</time>
        <ele>2333.0</ele>
      </trkpt>
      <trkpt lat="44.896461" lon="6.730016">
        <time>1970-01-01T00:00:00+00:00</time>
        <ele>2336.0</ele>
      </trkpt>
      <trkpt lat="44.896529" lon="6.730132">
        <time>1970-01-01T00:00:00+00:00</time>
        <ele>2338.0</ele>
      </trkpt>
      <trkpt lat="44.89658" lon="6.730153">
        <time>1970-01-01T00:00:00+00:00</time>
        <ele>2342.0</ele>
      </trkpt>
      <trkpt lat="44.896673" lon="6.730348">
        <time>1970-01-01T00:00:00+00:00</time>
        <ele>2345.0</ele>
      </trkpt>
      <trkpt lat="44.896727" lon="6.730554">
        <time>1970-01-01T00:00:00+00:00</time>
        <ele>2345.0</ele>
      </trkpt>
      <trkpt lat="44.896779" lon="6.730648">
        <time>1970-01-01T00:00:00+00:00</time>
        <ele>2347.0</ele>
      </trkpt>
      <trkpt lat="44.896804" lon="6.730666">
        <time>1970-01-01T00:00:00+00:00</time>
        <ele>2349.0</ele>
      </trkpt>
      <trkpt lat="44.896822" lon="6.730624">
        <time>1970-01-01T00:00:00+00:00</time>
        <ele>2350.0</ele>
      </trkpt>
      <trkpt lat="44.896858" lon="6.730609">
        <time>1970-01-01T00:00:00+00:00</time>
        <ele>2352.0</ele>
      </trkpt>
      <trkpt lat="44.896877" lon="6.730629">
        <time>1970-01-01T00:00:00+00:00</time>
        <ele>2352.0</ele>
      </trkpt>
      <trkpt lat="44.89692" lon="6.73073">
        <time>1970-01-01T00:00:00+00:00</time>
        <ele>2353.0</ele>
      </trkpt>
      <trkpt lat="44.896912" lon="6.730797">
        <time>1970-01-01T00:00:00+00:00</time>
        <ele>2352.0</ele>
      </trkpt>
      <trkpt lat="44.896952" lon="6.730878">
        <time>1970-01-01T00:00:00+00:00</time>
        <ele>2354.0</ele>
      </trkpt>
      <trkpt lat="44.896952" lon="6.730927">
        <time>1970-01-01T00:00:00+00:00</time>
        <ele>2354.0</ele>
      </trkpt>
      <trkpt lat="44.89715" lon="6.731319">
        <time>1970-01-01T00:00:00+00:00</time>
        <ele>2356.0</ele>
      </trkpt>
      <trkpt lat="44.897148" lon="6.7314">
        <time>1970-01-01T00:00:00+00:00</time>
        <ele>2354.0</ele>
      </trkpt>
      <trkpt lat="44.897214" lon="6.73145">
        <time>1970-01-01T00:00:00+00:00</time>
        <ele>2356.0</ele>
      </trkpt>
      <trkpt lat="44.897235" lon="6.731495">
        <time>1970-01-01T00:00:00+00:00</time>
        <ele>2356.0</ele>
      </trkpt>
      <trkpt lat="44.897247" lon="6.731661">
        <time>1970-01-01T00:00:00+00:00</time>
        <ele>2356.0</ele>
      </trkpt>
      <trkpt lat="44.897224" lon="6.731779">
        <time>1970-01-01T00:00:00+00:00</time>
        <ele>2355.0</ele>
      </trkpt>
      <trkpt lat="44.89729" lon="6.731999">
        <time>1970-01-01T00:00:00+00:00</time>
        <ele>2358.0</ele>
      </trkpt>
      <trkpt lat="44.897331" lon="6.732056">
        <time>1970-01-01T00:00:00+00:00</time>
        <ele>2361.0</ele>
      </trkpt>
      <trkpt lat="44.897356" lon="6.732028">
        <time>1970-01-01T00:00:00+00:00</time>
        <ele>2362.0</ele>
      </trkpt>
      <trkpt lat="44.897391" lon="6.732062">
        <time>1970-01-01T00:00:00+00:00</time>
        <ele>2364.0</ele>
      </trkpt>
      <trkpt lat="44.897442" lon="6.732188">
        <time>1970-01-01T00:00:00+00:00</time>
        <ele>2367.0</ele>
      </trkpt>
      <trkpt lat="44.897507" lon="6.732227">
        <time>1970-01-01T00:00:00+00:00</time>
        <ele>2369.0</ele>
      </trkpt>
      <trkpt lat="44.897516" lon="6.732338">
        <time>1970-01-01T00:00:00+00:00</time>
        <ele>2372.0</ele>
      </trkpt>
      <trkpt lat="44.897549" lon="6.732429">
        <time>1970-01-01T00:00:00+00:00</time>
        <ele>2374.0</ele>
      </trkpt>
      <trkpt lat="44.897555" lon="6.732488">
        <time>1970-01-01T00:00:00+00:00</time>
        <ele>2376.0</ele>
      </trkpt>
      <trkpt lat="44.897596" lon="6.732569">
        <time>1970-01-01T00:00:00+00:00</time>
        <ele>2378.0</ele>
      </trkpt>
      <trkpt lat="44.897599" lon="6.73261">
        <time>1970-01-01T00:00:00+00:00</time>
        <ele>2379.0</ele>
      </trkpt>
      <trkpt lat="44.89763" lon="6.732679">
        <time>1970-01-01T00:00:00+00:00</time>
        <ele>2380.0</ele>
      </trkpt>
      <trkpt lat="44.897662" lon="6.732665">
        <time>1970-01-01T00:00:00+00:00</time>
        <ele>2380.0</ele>
      </trkpt>
      <trkpt lat="44.897691" lon="6.732695">
        <time>1970-01-01T00:00:00+00:00</time>
        <ele>2381.0</ele>
      </trkpt>
      <trkpt lat="44.897742" lon="6.732778">
        <time>1970-01-01T00:00:00+00:00</time>
        <ele>2383.0</ele>
      </trkpt>
      <trkpt lat="44.897748" lon="6.732817">
        <time>1970-01-01T00:00:00+00:00</time>
        <ele>2384.0</ele>
      </trkpt>
      <trkpt lat="44.897782" lon="6.732856">
        <time>1970-01-01T00:00:00+00:00</time>
        <ele>2386.0</ele>
      </trkpt>
      <trkpt lat="44.897752" lon="6.733002">
        <time>1970-01-01T00:00:00+00:00</time>
        <ele>2390.0</ele>
      </trkpt>
      <trkpt lat="44.897655" lon="6.733068">
        <time>1970-01-01T00:00:00+00:00</time>
        <ele>2390.0</ele>
      </trkpt>
      <trkpt lat="44.897634" lon="6.7331">
        <time>1970-01-01T00:00:00+00:00</time>
        <ele>2390.0</ele>
      </trkpt>
      <trkpt lat="44.89779" lon="6.733169">
        <time>1970-01-01T00:00:00+00:00</time>
        <ele>2394.0</ele>
      </trkpt>
      <trkpt lat="44.897741" lon="6.733227">
        <time>1970-01-01T00:00:00+00:00</time>
        <ele>2393.0</ele>
      </trkpt>
      <trkpt lat="44.897746" lon="6.733283">
        <time>1970-01-01T00:00:00+00:00</time>
        <ele>2394.0</ele>
      </trkpt>
      <trkpt lat="44.897776" lon="6.733304">
        <time>1970-01-01T00:00:00+00:00</time>
        <ele>2395.0</ele>
      </trkpt>
      <trkpt lat="44.897812" lon="6.733373">
        <time>1970-01-01T00:00:00+00:00</time>
        <ele>2397.0</ele>
      </trkpt>
      <trkpt lat="44.897788" lon="6.733548">
        <time>1970-01-01T00:00:00+00:00</time>
        <ele>2399.0</ele>
      </trkpt>
      <trkpt lat="44.897792" lon="6.733642">
        <time>1970-01-01T00:00:00+00:00</time>
        <ele>2400.0</ele>
      </trkpt>
      <trkpt lat="44.897871" lon="6.733734">
        <time>1970-01-01T00:00:00+00:00</time>
        <ele>2404.0</ele>
      </trkpt>
      <trkpt lat="44.897929" lon="6.733919">
        <time>1970-01-01T00:00:00+00:00</time>
        <ele>2410.0</ele>
      </trkpt>
      <trkpt lat="44.897913" lon="6.73399">
        <time>1970-01-01T00:00:00+00:00</time>
        <ele>2411.0</ele>
      </trkpt>
      <trkpt lat="44.897882" lon="6.734018">
        <time>1970-01-01T00:00:00+00:00</time>
        <ele>2411.0</ele>
      </trkpt>
      <trkpt lat="44.897835" lon="6.734013">
        <time>1970-01-01T00:00:00+00:00</time>
        <ele>2410.0</ele>
      </trkpt>
      <trkpt lat="44.897737" lon="6.73408">
        <time>1970-01-01T00:00:00+00:00</time>
        <ele>2410.0</ele>
      </trkpt>
      <trkpt lat="44.897717" lon="6.734135">
        <time>1970-01-01T00:00:00+00:00</time>
        <ele>2411.0</ele>
      </trkpt>
      <trkpt lat="44.897658" lon="6.734148">
        <time>1970-01-01T00:00:00+00:00</time>
        <ele>2409.0</ele>
      </trkpt>
      <trkpt lat="44.897651" lon="6.734182">
        <time>1970-01-01T00:00:00+00:00</time>
        <ele>2410.0</ele>
      </trkpt>
      <trkpt lat="44.897699" lon="6.734246">
        <time>1970-01-01T00:00:00+00:00</time>
        <ele>2413.0</ele>
      </trkpt>
      <trkpt lat="44.897748" lon="6.734246">
        <time>1970-01-01T00:00:00+00:00</time>
        <ele>2415.0</ele>
      </trkpt>
      <trkpt lat="44.897755" lon="6.734317">
        <time>1970-01-01T00:00:00+00:00</time>
        <ele>2418.0</ele>
      </trkpt>
      <trkpt lat="44.897816" lon="6.734329">
        <time>1970-01-01T00:00:00+00:00</time>
        <ele>2420.0</ele>
      </trkpt>
      <trkpt lat="44.897834" lon="6.734354">
        <time>1970-01-01T00:00:00+00:00</time>
        <ele>2421.0</ele>
      </trkpt>
      <trkpt lat="44.897842" lon="6.734485">
        <time>1970-01-01T00:00:00+00:00</time>
        <ele>2425.0</ele>
      </trkpt>
      <trkpt lat="44.897861" lon="6.734505">
        <time>1970-01-01T00:00:00+00:00</time>
        <ele>2426.0</ele>
      </trkpt>
      <trkpt lat="44.897912" lon="6.73444">
        <time>1970-01-01T00:00:00+00:00</time>
        <ele>2424.0</ele>
      </trkpt>
      <trkpt lat="44.897984" lon="6.734461">
        <time>1970-01-01T00:00:00+00:00</time>
        <ele>2426.0</ele>
      </trkpt>
      <trkpt lat="44.897958" lon="6.73465">
        <time>1970-01-01T00:00:00+00:00</time>
        <ele>2433.0</ele>
      </trkpt>
      <trkpt lat="44.897934" lon="6.734712">
        <time>1970-01-01T00:00:00+00:00</time>
        <ele>2434.0</ele>
      </trkpt>
      <trkpt lat="44.897937" lon="6.734816">
        <time>1970-01-01T00:00:00+00:00</time>
        <ele>2437.0</ele>
      </trkpt>
      <trkpt lat="44.897949" lon="6.734869">
        <time>1970-01-01T00:00:00+00:00</time>
        <ele>2439.0</ele>
      </trkpt>
      <trkpt lat="44.897969" lon="6.734882">
        <time>1970-01-01T00:00:00+00:00</time>
        <ele>2440.0</ele>
      </trkpt>
      <trkpt lat="44.89804" lon="6.734869">
        <time>1970-01-01T00:00:00+00:00</time>
        <ele>2441.0</ele>
      </trkpt>
      <trkpt lat="44.898075" lon="6.7349">
        <time>1970-01-01T00:00:00+00:00</time>
        <ele>2442.0</ele>
      </trkpt>
      <trkpt lat="44.897961" lon="6.73511">
        <time>1970-01-01T00:00:00+00:00</time>
        <ele>2447.0</ele>
      </trkpt>
      <trkpt lat="44.89791" lon="6.73516">
        <time>1970-01-01T00:00:00+00:00</time>
        <ele>2446.0</ele>
      </trkpt>
      <trkpt lat="44.897856" lon="6.735238">
        <time>1970-01-01T00:00:00+00:00</time>
        <ele>2446.0</ele>
      </trkpt>
      <trkpt lat="44.897791" lon="6.735407">
        <time>1970-01-01T00:00:00+00:00</time>
        <ele>2445.0</ele>
      </trkpt>
      <trkpt lat="44.897766" lon="6.735579">
        <time>1970-01-01T00:00:00+00:00</time>
        <ele>2445.0</ele>
      </trkpt>
      <trkpt lat="44.897783" lon="6.735799">
        <time>1970-01-01T00:00:00+00:00</time>
        <ele>2447.0</ele>
      </trkpt>
      <trkpt lat="44.897828" lon="6.735987">
        <time>1970-01-01T00:00:00+00:00</time>
        <ele>2449.0</ele>
      </trkpt>
      <trkpt lat="44.89786" lon="6.736042">
        <time>1970-01-01T00:00:00+00:00</time>
        <ele>2450.0</ele>
      </trkpt>
      <trkpt lat="44.897882" lon="6.7359">
        <time>1970-01-01T00:00:00+00:00</time>
        <ele>2453.0</ele>
      </trkpt>
      <trkpt lat="44.897937" lon="6.735725">
        <time>1970-01-01T00:00:00+00:00</time>
        <ele>2457.0</ele>
      </trkpt>
      <trkpt lat="44.898033" lon="6.735597">
        <time>1970-01-01T00:00:00+00:00</time>
        <ele>2461.0</ele>
      </trkpt>
      <trkpt lat="44.898111" lon="6.735561">
        <time>1970-01-01T00:00:00+00:00</time>
        <ele>2465.0</ele>
      </trkpt>
      <trkpt lat="44.898125" lon="6.735585">
        <time>1970-01-01T00:00:00+00:00</time>
        <ele>2466.0</ele>
      </trkpt>
      <trkpt lat="44.898098" lon="6.735691">
        <time>1970-01-01T00:00:00+00:00</time>
        <ele>2466.0</ele>
      </trkpt>
      <trkpt lat="44.89812" lon="6.735718">
        <time>1970-01-01T00:00:00+00:00</time>
        <ele>2468.0</ele>
      </trkpt>
      <trkpt lat="44.898197" lon="6.735704">
        <time>1970-01-01T00:00:00+00:00</time>
        <ele>2471.0</ele>
      </trkpt>
      <trkpt lat="44.898206" lon="6.735724">
        <time>1970-01-01T00:00:00+00:00</time>
        <ele>2472.0</ele>
      </trkpt>
      <trkpt lat="44.898173" lon="6.735766">
        <time>1970-01-01T00:00:00+00:00</time>
        <ele>2471.0</ele>
      </trkpt>
      <trkpt lat="44.898159" lon="6.735829">
        <time>1970-01-01T00:00:00+00:00</time>
        <ele>2470.0</ele>
      </trkpt>
      <trkpt lat="44.898167" lon="6.735931">
        <time>1970-01-01T00:00:00+00:00</time>
        <ele>2470.0</ele>
      </trkpt>
      <trkpt lat="44.8982" lon="6.736122">
        <time>1970-01-01T00:00:00+00:00</time>
        <ele>2470.0</ele>
      </trkpt>
      <trkpt lat="44.898279" lon="6.736308">
        <time>1970-01-01T00:00:00+00:00</time>
        <ele>2471.0</ele>
      </trkpt>
      <trkpt lat="44.898351" lon="6.736352">
        <time>1970-01-01T00:00:00+00:00</time>
        <ele>2474.0</ele>
      </trkpt>
      <trkpt lat="44.898741" lon="6.736345">
        <time>1970-01-01T00:00:00+00:00</time>
        <ele>2488.0</ele>
      </trkpt>
      <trkpt lat="44.898804" lon="6.736348">
        <time>1970-01-01T00:00:00+00:00</time>
        <ele>2490.0</ele>
      </trkpt>
      <trkpt lat="44.898823" lon="6.736369">
        <time>1970-01-01T00:00:00+00:00</time>
        <ele>2490.0</ele>
      </trkpt>
      <trkpt lat="44.898797" lon="6.736512">
        <time>1970-01-01T00:00:00+00:00</time>
        <ele>2490.0</ele>
      </trkpt>
      <trkpt lat="44.898761" lon="6.736614">
        <time>1970-01-01T00:00:00+00:00</time>
        <ele>2489.0</ele>
      </trkpt>
      <trkpt lat="44.898753" lon="6.736701">
        <time>1970-01-01T00:00:00+00:00</time>
        <ele>2487.0</ele>
      </trkpt>
      <trkpt lat="44.898778" lon="6.736802">
        <time>1970-01-01T00:00:00+00:00</time>
        <ele>2487.0</ele>
      </trkpt>
      <trkpt lat="44.898905" lon="6.736977">
        <time>1970-01-01T00:00:00+00:00</time>
        <ele>2489.0</ele>
      </trkpt>
      <trkpt lat="44.899235" lon="6.737371">
        <time>1970-01-01T00:00:00+00:00</time>
        <ele>2497.0</ele>
      </trkpt>
      <trkpt lat="44.899256" lon="6.737365">
        <time>1970-01-01T00:00:00+00:00</time>
        <ele>2498.0</ele>
      </trkpt>
      <trkpt lat="44.899255" lon="6.737324">
        <time>1970-01-01T00:00:00+00:00</time>
        <ele>2499.0</ele>
      </trkpt>
      <trkpt lat="44.89917" lon="6.736976">
        <time>1970-01-01T00:00:00+00:00</time>
        <ele>2501.0</ele>
      </trkpt>
      <trkpt lat="44.899182" lon="6.736953">
        <time>1970-01-01T00:00:00+00:00</time>
        <ele>2502.0</ele>
      </trkpt>
      <trkpt lat="44.899199" lon="6.73697">
        <time>1970-01-01T00:00:00+00:00</time>
        <ele>2502.0</ele>
      </trkpt>
      <trkpt lat="44.89935" lon="6.737172">
        <time>1970-01-01T00:00:00+00:00</time>
        <ele>2506.0</ele>
      </trkpt>
      <trkpt lat="44.899411" lon="6.737305">
        <time>1970-01-01T00:00:00+00:00</time>
        <ele>2508.0</ele>
      </trkpt>
      <trkpt lat="44.899548" lon="6.737801">
        <time>1970-01-01T00:00:00+00:00</time>
        <ele>2518.0</ele>
      </trkpt>
      <trkpt lat="44.899563" lon="6.737797">
        <time>1970-01-01T00:00:00+00:00</time>
        <ele>2519.0</ele>
      </trkpt>
      <trkpt lat="44.89963" lon="6.737632">
        <time>1970-01-01T00:00:00+00:00</time>
        <ele>2522.0</ele>
      </trkpt>
      <trkpt lat="44.899659" lon="6.737725">
        <time>1970-01-01T00:00:00+00:00</time>
        <ele>2525.0</ele>
      </trkpt>
      <trkpt lat="44.899649" lon="6.737921">
        <time>1970-01-01T00:00:00+00:00</time>
        <ele>2527.0</ele>
      </trkpt>
      <trkpt lat="44.899701" lon="6.738267">
        <time>1970-01-01T00:00:00+00:00</time>
        <ele>2532.0</ele>
      </trkpt>
      <trkpt lat="44.899795" lon="6.7385">
        <time>1970-01-01T00:00:00+00:00</time>
        <ele>2538.0</ele>
      </trkpt>
      <trkpt lat="44.899871" lon="6.738128">
        <time>1970-01-01T00:00:00+00:00</time>
        <ele>2542.0</ele>
      </trkpt>
      <trkpt lat="44.899901" lon="6.73807">
        <time>1970-01-01T00:00:00+00:00</time>
        <ele>2544.0</ele>
      </trkpt>
      <trkpt lat="44.899962" lon="6.738006">
        <time>1970-01-01T00:00:00+00:00</time>
        <ele>2548.0</ele>
      </trkpt>
      <trkpt lat="44.900009" lon="6.737985">
        <time>1970-01-01T00:00:00+00:00</time>
        <ele>2551.0</ele>
      </trkpt>
      <trkpt lat="44.900035" lon="6.737991">
        <time>1970-01-01T00:00:00+00:00</time>
        <ele>2553.0</ele>
      </trkpt>
      <trkpt lat="44.900069" lon="6.738058">
        <time>1970-01-01T00:00:00+00:00</time>
        <ele>2556.0</ele>
      </trkpt>
      <trkpt lat="44.900256" lon="6.738161">
        <time>1970-01-01T00:00:00+00:00</time>
        <ele>2565.0</ele>
      </trkpt>
      <trkpt lat="44.900506" lon="6.738211">
        <time>1970-01-01T00:00:00+00:00</time>
        <ele>2573.0</ele>
      </trkpt>
      <trkpt lat="44.900618" lon="6.738207">
        <time>1970-01-01T00:00:00+00:00</time>
        <ele>2575.0</ele>
      </trkpt>
      <trkpt lat="44.90066" lon="6.738279">
        <time>1970-01-01T00:00:00+00:00</time>
        <ele>2578.0</ele>
      </trkpt>
      <trkpt lat="44.900591" lon="6.738372">
        <time>1970-01-01T00:00:00+00:00</time>
        <ele>2580.0</ele>
      </trkpt>
      <trkpt lat="44.90057" lon="6.738459">
        <time>1970-01-01T00:00:00+00:00</time>
        <ele>2582.0</ele>
      </trkpt>
      <trkpt lat="44.900652" lon="6.738438">
        <time>1970-01-01T00:00:00+00:00</time>
        <ele>2584.0</ele>
      </trkpt>
      <trkpt lat="44.900712" lon="6.738484">
        <time>1970-01-01T00:00:00+00:00</time>
        <ele>2586.0</ele>
      </trkpt>
      <trkpt lat="44.90075" lon="6.738488">
        <time>1970-01-01T00:00:00+00:00</time>
        <ele>2587.0</ele>
      </trkpt>
      <trkpt lat="44.900714" lon="6.73856">
        <time>1970-01-01T00:00:00+00:00</time>
        <ele>2588.0</ele>
      </trkpt>
      <trkpt lat="44.900718" lon="6.738604">
        <time>1970-01-01T00:00:00+00:00</time>
        <ele>2588.0</ele>
      </trkpt>
      <trkpt lat="44.900806" lon="6.738659">
        <time>1970-01-01T00:00:00+00:00</time>
        <ele>2591.0</ele>
      </trkpt>
      <trkpt lat="44.900916" lon="6.73882">
        <time>1970-01-01T00:00:00+00:00</time>
        <ele>2594.0</ele>
      </trkpt>
      <trkpt lat="44.901012" lon="6.739083">
        <time>1970-01-01T00:00:00+00:00</time>
        <ele>2598.0</ele>
      </trkpt>
      <trkpt lat="44.901114" lon="6.739286">
        <time>1970-01-01T00:00:00+00:00</time>
        <ele>2603.0</ele>
      </trkpt>
      <trkpt lat="44.901082" lon="6.739441">
        <time>1970-01-01T00:00:00+00:00</time>
        <ele>2605.0</ele>
      </trkpt>
      <trkpt lat="44.900952" lon="6.739736">
        <time>1970-01-01T00:00:00+00:00</time>
        <ele>2600.0</ele>
      </trkpt>
      <trkpt lat="44.900952" lon="6.739794">
        <time>1970-01-01T00:00:00+00:00</time>
        <ele>2599.0</ele>
      </trkpt>
      <trkpt lat="44.900998" lon="6.739886">
        <time>1970-01-01T00:00:00+00:00</time>
        <ele>2599.0</ele>
      </trkpt>
      <trkpt lat="44.901198" lon="6.740111">
        <time>1970-01-01T00:00:00+00:00</time>
        <ele>2604.0</ele>
      </trkpt>
      <trkpt lat="44.901464" lon="6.740312">
        <time>1970-01-01T00:00:00+00:00</time>
        <ele>2610.0</ele>
      </trkpt>
      <trkpt lat="44.901526" lon="6.740327">
        <time>1970-01-01T00:00:00+00:00</time>
        <ele>2613.0</ele>
      </trkpt>
      <trkpt lat="44.901594" lon="6.740313">
        <time>1970-01-01T00:00:00+00:00</time>
        <ele>2617.0</ele>
      </trkpt>
      <trkpt lat="44.90164" lon="6.740238">
        <time>1970-01-01T00:00:00+00:00</time>
        <ele>2620.0</ele>
      </trkpt>
      <trkpt lat="44.901684" lon="6.740316">
        <time>1970-01-01T00:00:00+00:00</time>
        <ele>2620.0</ele>
      </trkpt>
      <trkpt lat="44.901737" lon="6.740336">
        <time>1970-01-01T00:00:00+00:00</time>
        <ele>2623.0</ele>
      </trkpt>
      <trkpt lat="44.901791" lon="6.740328">
        <time>1970-01-01T00:00:00+00:00</time>
        <ele>2625.0</ele>
      </trkpt>
      <trkpt lat="44.901791" lon="6.74039">
        <time>1970-01-01T00:00:00+00:00</time>
        <ele>2624.0</ele>
      </trkpt>
      <trkpt lat="44.90183" lon="6.740439">
        <time>1970-01-01T00:00:00+00:00</time>
        <ele>2624.0</ele>
      </trkpt>
      <trkpt lat="44.901901" lon="6.740479">
        <time>1970-01-01T00:00:00+00:00</time>
        <ele>2626.0</ele>
      </trkpt>
      <trkpt lat="44.901976" lon="6.740465">
        <time>1970-01-01T00:00:00+00:00</time>
        <ele>2629.0</ele>
      </trkpt>
      <trkpt lat="44.902022" lon="6.74053">
        <time>1970-01-01T00:00:00+00:00</time>
        <ele>2630.0</ele>
      </trkpt>
      <trkpt lat="44.902211" lon="6.740474">
        <time>1970-01-01T00:00:00+00:00</time>
        <ele>2637.0</ele>
      </trkpt>
      <trkpt lat="44.902308" lon="6.740503">
        <time>1970-01-01T00:00:00+00:00</time>
        <ele>2638.0</ele>
      </trkpt>
      <trkpt lat="44.902435" lon="6.740382">
        <time>1970-01-01T00:00:00+00:00</time>
        <ele>2641.0</ele>
      </trkpt>
      <trkpt lat="44.902478" lon="6.740306">
        <time>1970-01-01T00:00:00+00:00</time>
        <ele>2641.0</ele>
      </trkpt>
      <trkpt lat="44.902531" lon="6.740318">
        <time>1970-01-01T00:00:00+00:00</time>
        <ele>2641.0</ele>
      </trkpt>
      <trkpt lat="44.902531" lon="6.740318">
        <time>1970-01-01T00:00:00+00:00</time>
        <ele>2641.0</ele>
      </trkpt>
      <trkpt lat="44.902478" lon="6.740306">
        <time>1970-01-01T00:00:00+00:00</time>
        <ele>2641.0</ele>
      </trkpt>
      <trkpt lat="44.902435" lon="6.740382">
        <time>1970-01-01T00:00:00+00:00</time>
        <ele>2641.0</ele>
      </trkpt>
      <trkpt lat="44.902308" lon="6.740503">
        <time>1970-01-01T00:00:00+00:00</time>
        <ele>2638.0</ele>
      </trkpt>
      <trkpt lat="44.902407" lon="6.740586">
        <time>1970-01-01T00:00:00+00:00</time>
        <ele>2638.0</ele>
      </trkpt>
      <trkpt lat="44.902417" lon="6.740676">
        <time>1970-01-01T00:00:00+00:00</time>
        <ele>2636.0</ele>
      </trkpt>
      <trkpt lat="44.902446" lon="6.740723">
        <time>1970-01-01T00:00:00+00:00</time>
        <ele>2635.0</ele>
      </trkpt>
      <trkpt lat="44.902514" lon="6.740685">
        <time>1970-01-01T00:00:00+00:00</time>
        <ele>2635.0</ele>
      </trkpt>
      <trkpt lat="44.902562" lon="6.74058">
        <time>1970-01-01T00:00:00+00:00</time>
        <ele>2637.0</ele>
      </trkpt>
      <trkpt lat="44.902579" lon="6.740565">
        <time>1970-01-01T00:00:00+00:00</time>
        <ele>2636.0</ele>
      </trkpt>
      <trkpt lat="44.902605" lon="6.740575">
        <time>1970-01-01T00:00:00+00:00</time>
        <ele>2635.0</ele>
      </trkpt>
      <trkpt lat="44.902628" lon="6.740712">
        <time>1970-01-01T00:00:00+00:00</time>
        <ele>2632.0</ele>
      </trkpt>
      <trkpt lat="44.902569" lon="6.740996">
        <time>1970-01-01T00:00:00+00:00</time>
        <ele>2627.0</ele>
      </trkpt>
      <trkpt lat="44.902509" lon="6.741152">
        <time>1970-01-01T00:00:00+00:00</time>
        <ele>2624.0</ele>
      </trkpt>
      <trkpt lat="44.902497" lon="6.741278">
        <time>1970-01-01T00:00:00+00:00</time>
        <ele>2621.0</ele>
      </trkpt>
      <trkpt lat="44.902532" lon="6.741555">
        <time>1970-01-01T00:00:00+00:00</time>
        <ele>2614.0</ele>
      </trkpt>
      <trkpt lat="44.902545" lon="6.741597">
        <time>1970-01-01T00:00:00+00:00</time>
        <ele>2613.0</ele>
      </trkpt>
      <trkpt lat="44.902593" lon="6.741592">
        <time>1970-01-01T00:00:00+00:00</time>
        <ele>2612.0</ele>
      </trkpt>
      <trkpt lat="44.902644" lon="6.741578">
        <time>1970-01-01T00:00:00+00:00</time>
        <ele>2611.0</ele>
      </trkpt>
      <trkpt lat="44.902747" lon="6.74151">
        <time>1970-01-01T00:00:00+00:00</time>
        <ele>2610.0</ele>
      </trkpt>
      <trkpt lat="44.902787" lon="6.741506">
        <time>1970-01-01T00:00:00+00:00</time>
        <ele>2609.0</ele>
      </trkpt>
      <trkpt lat="44.902796" lon="6.741539">
        <time>1970-01-01T00:00:00+00:00</time>
        <ele>2607.0</ele>
      </trkpt>
      <trkpt lat="44.902778" lon="6.741671">
        <time>1970-01-01T00:00:00+00:00</time>
        <ele>2605.0</ele>
      </trkpt>
      <trkpt lat="44.902687" lon="6.741939">
        <time>1970-01-01T00:00:00+00:00</time>
        <ele>2601.0</ele>
      </trkpt>
      <trkpt lat="44.902687" lon="6.741974">
        <time>1970-01-01T00:00:00+00:00</time>
        <ele>2600.0</ele>
      </trkpt>
      <trkpt lat="44.902782" lon="6.741942">
        <time>1970-01-01T00:00:00+00:00</time>
        <ele>2597.0</ele>
      </trkpt>
      <trkpt lat="44.90287" lon="6.741942">
        <time>1970-01-01T00:00:00+00:00</time>
        <ele>2593.0</ele>
      </trkpt>
      <trkpt lat="44.902846" lon="6.742061">
        <time>1970-01-01T00:00:00+00:00</time>
        <ele>2590.0</ele>
      </trkpt>
      <trkpt lat="44.902773" lon="6.742211">
        <time>1970-01-01T00:00:00+00:00</time>
        <ele>2589.0</ele>
      </trkpt>
      <trkpt lat="44.902723" lon="6.742403">
        <time>1970-01-01T00:00:00+00:00</time>
        <ele>2582.0</ele>
      </trkpt>
      <trkpt lat="44.90269" lon="6.742467">
        <time>1970-01-01T00:00:00+00:00</time>
        <ele>2580.0</ele>
      </trkpt>
      <trkpt lat="44.902623" lon="6.742685">
        <time>1970-01-01T00:00:00+00:00</time>
        <ele>2571.0</ele>
      </trkpt>
      <trkpt lat="44.902635" lon="6.742703">
        <time>1970-01-01T00:00:00+00:00</time>
        <ele>2570.0</ele>
      </trkpt>
      <trkpt lat="44.902711" lon="6.742659">
        <time>1970-01-01T00:00:00+00:00</time>
        <ele>2570.0</ele>
      </trkpt>
      <trkpt lat="44.902956" lon="6.74263">
        <time>1970-01-01T00:00:00+00:00</time>
        <ele>2561.0</ele>
      </trkpt>
      <trkpt lat="44.903247" lon="6.742666">
        <time>1970-01-01T00:00:00+00:00</time>
        <ele>2551.0</ele>
      </trkpt>
      <trkpt lat="44.903267" lon="6.742684">
        <time>1970-01-01T00:00:00+00:00</time>
        <ele>2550.0</ele>
      </trkpt>
      <trkpt lat="44.903183" lon="6.742828">
        <time>1970-01-01T00:00:00+00:00</time>
        <ele>2547.0</ele>
      </trkpt>
      <trkpt lat="44.903133" lon="6.74296">
        <time>1970-01-01T00:00:00+00:00</time>
        <ele>2544.0</ele>
      </trkpt>
      <trkpt lat="44.903271" lon="6.742974">
        <time>1970-01-01T00:00:00+00:00</time>
        <ele>2540.0</ele>
      </trkpt>
      <trkpt lat="44.903291" lon="6.74299">
        <time>1970-01-01T00:00:00+00:00</time>
        <ele>2539.0</ele>
      </trkpt>
      <trkpt lat="44.903292" lon="6.743019">
        <time>1970-01-01T00:00:00+00:00</time>
        <ele>2538.0</ele>
      </trkpt>
      <trkpt lat="44.903216" lon="6.743272">
        <time>1970-01-01T00:00:00+00:00</time>
        <ele>2531.0</ele>
      </trkpt>
      <trkpt lat="44.903109" lon="6.743497">
        <time>1970-01-01T00:00:00+00:00</time>
        <ele>2526.0</ele>
      </trkpt>
      <trkpt lat="44.903044" lon="6.74369">
        <time>1970-01-01T00:00:00+00:00</time>
        <ele>2522.0</ele>
      </trkpt>
      <trkpt lat="44.903039" lon="6.743761">
        <time>1970-01-01T00:00:00+00:00</time>
        <ele>2520.0</ele>
      </trkpt>
      <trkpt lat="44.90301" lon="6.743863">
        <time>1970-01-01T00:00:00+00:00</time>
        <ele>2518.0</ele>
      </trkpt>
      <trkpt lat="44.902967" lon="6.743971">
        <time>1970-01-01T00:00:00+00:00</time>
        <ele>2517.0</ele>
      </trkpt>
      <trkpt lat="44.902969" lon="6.744058">
        <time>1970-01-01T00:00:00+00:00</time>
        <ele>2517.0</ele>
      </trkpt>
      <trkpt lat="44.90291" lon="6.744478">
        <time>1970-01-01T00:00:00+00:00</time>
        <ele>2518.0</ele>
      </trkpt>
      <trkpt lat="44.902897" lon="6.744747">
        <time>1970-01-01T00:00:00+00:00</time>
        <ele>2519.0</ele>
      </trkpt>
      <trkpt lat="44.902911" lon="6.744993">
        <time>1970-01-01T00:00:00+00:00</time>
        <ele>2520.0</ele>
      </trkpt>
      <trkpt lat="44.902968" lon="6.745231">
        <time>1970-01-01T00:00:00+00:00</time>
        <ele>2520.0</ele>
      </trkpt>
      <trkpt lat="44.90308" lon="6.745433">
        <time>1970-01-01T00:00:00+00:00</time>
        <ele>2524.0</ele>
      </trkpt>
      <trkpt lat="44.903153" lon="6.745627">
        <time>1970-01-01T00:00:00+00:00</time>
        <ele>2524.0</ele>
      </trkpt>
      <trkpt lat="44.903243" lon="6.74598">
        <time>1970-01-01T00:00:00+00:00</time>
        <ele>2522.0</ele>
      </trkpt>
      <trkpt lat="44.903417" lon="6.746217">
        <time>1970-01-01T00:00:00+00:00</time>
        <ele>2521.0</ele>
      </trkpt>
      <trkpt lat="44.903488" lon="6.746288">
        <time>1970-01-01T00:00:00+00:00</time>
        <ele>2521.0</ele>
      </trkpt>
      <trkpt lat="44.903599" lon="6.746589">
        <time>1970-01-01T00:00:00+00:00</time>
        <ele>2518.0</ele>
      </trkpt>
      <trkpt lat="44.903839" lon="6.746881">
        <time>1970-01-01T00:00:00+00:00</time>
        <ele>2516.0</ele>
      </trkpt>
      <trkpt lat="44.903842" lon="6.74692">
        <time>1970-01-01T00:00:00+00:00</time>
        <ele>2516.0</ele>
      </trkpt>
      <trkpt lat="44.903798" lon="6.747032">
        <time>1970-01-01T00:00:00+00:00</time>
        <ele>2515.0</ele>
      </trkpt>
      <trkpt lat="44.903852" lon="6.747264">
        <time>1970-01-01T00:00:00+00:00</time>
        <ele>2514.0</ele>
      </trkpt>
      <trkpt lat="44.903882" lon="6.747329">
        <time>1970-01-01T00:00:00+00:00</time>
        <ele>2515.0</ele>
      </trkpt>
      <trkpt lat="44.904081" lon="6.747495">
        <time>1970-01-01T00:00:00+00:00</time>
        <ele>2515.0</ele>
      </trkpt>
      <trkpt lat="44.904162" lon="6.747585">
        <time>1970-01-01T00:00:00+00:00</time>
        <ele>2515.0</ele>
      </trkpt>
      <trkpt lat="44.904037" lon="6.74778">
        <time>1970-01-01T00:00:00+00:00</time>
        <ele>2515.0</ele>
      </trkpt>
      <trkpt lat="44.903998" lon="6.747873">
        <time>1970-01-01T00:00:00+00:00</time>
        <ele>2514.0</ele>
      </trkpt>
      <trkpt lat="44.90387" lon="6.747869">
        <time>1970-01-01T00:00:00+00:00</time>
        <ele>2512.0</ele>
      </trkpt>
      <trkpt lat="44.903593" lon="6.747783">
        <time>1970-01-01T00:00:00+00:00</time>
        <ele>2506.0</ele>
      </trkpt>
      <trkpt lat="44.903543" lon="6.747714">
        <time>1970-01-01T00:00:00+00:00</time>
        <ele>2504.0</ele>
      </trkpt>
      <trkpt lat="44.903462" lon="6.747543">
        <time>1970-01-01T00:00:00+00:00</time>
        <ele>2500.0</ele>
      </trkpt>
      <trkpt lat="44.903441" lon="6.747534">
        <time>1970-01-01T00:00:00+00:00</time>
        <ele>2499.0</ele>
      </trkpt>
      <trkpt lat="44.903417" lon="6.747546">
        <time>1970-01-01T00:00:00+00:00</time>
        <ele>2498.0</ele>
      </trkpt>
      <trkpt lat="44.903366" lon="6.747641">
        <time>1970-01-01T00:00:00+00:00</time>
        <ele>2495.0</ele>
      </trkpt>
      <trkpt lat="44.903307" lon="6.747806">
        <time>1970-01-01T00:00:00+00:00</time>
        <ele>2494.0</ele>
      </trkpt>
      <trkpt lat="44.903267" lon="6.747812">
        <time>1970-01-01T00:00:00+00:00</time>
        <ele>2491.0</ele>
      </trkpt>
      <trkpt lat="44.903157" lon="6.747515">
        <time>1970-01-01T00:00:00+00:00</time>
        <ele>2483.0</ele>
      </trkpt>
      <trkpt lat="44.903138" lon="6.747517">
        <time>1970-01-01T00:00:00+00:00</time>
        <ele>2482.0</ele>
      </trkpt>
      <trkpt lat="44.9031" lon="6.747632">
        <time>1970-01-01T00:00:00+00:00</time>
        <ele>2480.0</ele>
      </trkpt>
      <trkpt lat="44.903055" lon="6.747708">
        <time>1970-01-01T00:00:00+00:00</time>
        <ele>2478.0</ele>
      </trkpt>
      <trkpt lat="44.903017" lon="6.747668">
        <time>1970-01-01T00:00:00+00:00</time>
        <ele>2476.0</ele>
      </trkpt>
      <trkpt lat="44.902949" lon="6.747518">
        <time>1970-01-01T00:00:00+00:00</time>
        <ele>2472.0</ele>
      </trkpt>
      <trkpt lat="44.902921" lon="6.747521">
        <time>1970-01-01T00:00:00+00:00</time>
        <ele>2471.0</ele>
      </trkpt>
      <trkpt lat="44.902852" lon="6.747621">
        <time>1970-01-01T00:00:00+00:00</time>
        <ele>2467.0</ele>
      </trkpt>
      <trkpt lat="44.902813" lon="6.747614">
        <time>1970-01-01T00:00:00+00:00</time>
        <ele>2465.0</ele>
      </trkpt>
      <trkpt lat="44.902702" lon="6.747479">
        <time>1970-01-01T00:00:00+00:00</time>
        <ele>2461.0</ele>
      </trkpt>
      <trkpt lat="44.902557" lon="6.747357">
        <time>1970-01-01T00:00:00+00:00</time>
        <ele>2458.0</ele>
      </trkpt>
      <trkpt lat="44.902528" lon="6.747358">
        <time>1970-01-01T00:00:00+00:00</time>
        <ele>2457.0</ele>
      </trkpt>
      <trkpt lat="44.902372" lon="6.747584">
        <time>1970-01-01T00:00:00+00:00</time>
        <ele>2454.0</ele>
      </trkpt>
      <trkpt lat="44.902188" lon="6.747774">
        <time>1970-01-01T00:00:00+00:00</time>
        <ele>2453.0</ele>
      </trkpt>
      <trkpt lat="44.902158" lon="6.747782">
        <time>1970-01-01T00:00:00+00:00</time>
        <ele>2453.0</ele>
      </trkpt>
      <trkpt lat="44.902137" lon="6.747763">
        <time>1970-01-01T00:00:00+00:00</time>
        <ele>2452.0</ele>
      </trkpt>
      <trkpt lat="44.902123" lon="6.74771">
        <time>1970-01-01T00:00:00+00:00</time>
        <ele>2452.0</ele>
      </trkpt>
      <trkpt lat="44.902124" lon="6.747411">
        <time>1970-01-01T00:00:00+00:00</time>
        <ele>2446.0</ele>
      </trkpt>
      <trkpt lat="44.902141" lon="6.747234">
        <time>1970-01-01T00:00:00+00:00</time>
        <ele>2444.0</ele>
      </trkpt>
      <trkpt lat="44.902118" lon="6.747145">
        <time>1970-01-01T00:00:00+00:00</time>
        <ele>2442.0</ele>
      </trkpt>
      <trkpt lat="44.90195" lon="6.746955">
        <time>1970-01-01T00:00:00+00:00</time>
        <ele>2435.0</ele>
      </trkpt>
      <trkpt lat="44.90181" lon="6.746735">
        <time>1970-01-01T00:00:00+00:00</time>
        <ele>2432.0</ele>
      </trkpt>
      <trkpt lat="44.901679" lon="6.74664">
        <time>1970-01-01T00:00:00+00:00</time>
        <ele>2431.0</ele>
      </trkpt>
      <trkpt lat="44.901612" lon="6.746626">
        <time>1970-01-01T00:00:00+00:00</time>
        <ele>2429.0</ele>
      </trkpt>
      <trkpt lat="44.90158" lon="6.746665">
        <time>1970-01-01T00:00:00+00:00</time>
        <ele>2428.0</ele>
      </trkpt>
      <trkpt lat="44.901476" lon="6.746986">
        <time>1970-01-01T00:00:00+00:00</time>
        <ele>2423.0</ele>
      </trkpt>
      <trkpt lat="44.901369" lon="6.747224">
        <time>1970-01-01T00:00:00+00:00</time>
        <ele>2420.0</ele>
      </trkpt>
      <trkpt lat="44.901242" lon="6.747356">
        <time>1970-01-01T00:00:00+00:00</time>
        <ele>2415.0</ele>
      </trkpt>
      <trkpt lat="44.900559" lon="6.747742">
        <time>1970-01-01T00:00:00+00:00</time>
        <ele>2379.0</ele>
      </trkpt>
      <trkpt lat="44.900526" lon="6.747785">
        <time>1970-01-01T00:00:00+00:00</time>
        <ele>2377.0</ele>
      </trkpt>
      <trkpt lat="44.900461" lon="6.747948">
        <time>1970-01-01T00:00:00+00:00</time>
        <ele>2373.0</ele>
      </trkpt>
      <trkpt lat="44.900444" lon="6.747948">
        <time>1970-01-01T00:00:00+00:00</time>
        <ele>2372.0</ele>
      </trkpt>
      <trkpt lat="44.90035" lon="6.747722">
        <time>1970-01-01T00:00:00+00:00</time>
        <ele>2370.0</ele>
      </trkpt>
      <trkpt lat="44.900304" lon="6.747704">
        <time>1970-01-01T00:00:00+00:00</time>
        <ele>2368.0</ele>
      </trkpt>
      <trkpt lat="44.900265" lon="6.747787">
        <time>1970-01-01T00:00:00+00:00</time>
        <ele>2366.0</ele>
      </trkpt>
      <trkpt lat="44.900236" lon="6.747958">
        <time>1970-01-01T00:00:00+00:00</time>
        <ele>2363.0</ele>
      </trkpt>
      <trkpt lat="44.900141" lon="6.748146">
        <time>1970-01-01T00:00:00+00:00</time>
        <ele>2353.0</ele>
      </trkpt>
      <trkpt lat="44.900065" lon="6.748217">
        <time>1970-01-01T00:00:00+00:00</time>
        <ele>2348.0</ele>
      </trkpt>
      <trkpt lat="44.900065" lon="6.748357">
        <time>1970-01-01T00:00:00+00:00</time>
        <ele>2345.0</ele>
      </trkpt>
      <trkpt lat="44.900048" lon="6.748375">
        <time>1970-01-01T00:00:00+00:00</time>
        <ele>2344.0</ele>
      </trkpt>
      <trkpt lat="44.899954" lon="6.748366">
        <time>1970-01-01T00:00:00+00:00</time>
        <ele>2341.0</ele>
      </trkpt>
      <trkpt lat="44.899924" lon="6.748391">
        <time>1970-01-01T00:00:00+00:00</time>
        <ele>2339.0</ele>
      </trkpt>
      <trkpt lat="44.899882" lon="6.748489">
        <time>1970-01-01T00:00:00+00:00</time>
        <ele>2337.0</ele>
      </trkpt>
      <trkpt lat="44.899863" lon="6.748486">
        <time>1970-01-01T00:00:00+00:00</time>
        <ele>2337.0</ele>
      </trkpt>
      <trkpt lat="44.899799" lon="6.748387">
        <time>1970-01-01T00:00:00+00:00</time>
        <ele>2335.0</ele>
      </trkpt>
      <trkpt lat="44.899734" lon="6.748337">
        <time>1970-01-01T00:00:00+00:00</time>
        <ele>2333.0</ele>
      </trkpt>
      <trkpt lat="44.899671" lon="6.748324">
        <time>1970-01-01T00:00:00+00:00</time>
        <ele>2331.0</ele>
      </trkpt>
      <trkpt lat="44.899563" lon="6.748339">
        <time>1970-01-01T00:00:00+00:00</time>
        <ele>2328.0</ele>
      </trkpt>
      <trkpt lat="44.899491" lon="6.748431">
        <time>1970-01-01T00:00:00+00:00</time>
        <ele>2325.0</ele>
      </trkpt>
      <trkpt lat="44.899398" lon="6.748699">
        <time>1970-01-01T00:00:00+00:00</time>
        <ele>2324.0</ele>
      </trkpt>
      <trkpt lat="44.899329" lon="6.748813">
        <time>1970-01-01T00:00:00+00:00</time>
        <ele>2322.0</ele>
      </trkpt>
      <trkpt lat="44.899202" lon="6.748962">
        <time>1970-01-01T00:00:00+00:00</time>
        <ele>2320.0</ele>
      </trkpt>
      <trkpt lat="44.899142" lon="6.749078">
        <time>1970-01-01T00:00:00+00:00</time>
        <ele>2318.0</ele>
      </trkpt>
      <trkpt lat="44.899032" lon="6.749201">
        <time>1970-01-01T00:00:00+00:00</time>
        <ele>2316.0</ele>
      </trkpt>
      <trkpt lat="44.8989" lon="6.749258">
        <time>1970-01-01T00:00:00+00:00</time>
        <ele>2313.0</ele>
      </trkpt>
      <trkpt lat="44.898754" lon="6.749269">
        <time>1970-01-01T00:00:00+00:00</time>
        <ele>2313.0</ele>
      </trkpt>
      <trkpt lat="44.898523" lon="6.749599">
        <time>1970-01-01T00:00:00+00:00</time>
        <ele>2308.0</ele>
      </trkpt>
      <trkpt lat="44.898285" lon="6.749863">
        <time>1970-01-01T00:00:00+00:00</time>
        <ele>2305.0</ele>
      </trkpt>
      <trkpt lat="44.897929" lon="6.75002">
        <time>1970-01-01T00:00:00+00:00</time>
        <ele>2303.0</ele>
      </trkpt>
      <trkpt lat="44.896959" lon="6.750304">
        <time>1970-01-01T00:00:00+00:00</time>
        <ele>2301.0</ele>
      </trkpt>
      <trkpt lat="44.896827" lon="6.750355">
        <time>1970-01-01T00:00:00+00:00</time>
        <ele>2301.0</ele>
      </trkpt>
      <trkpt lat="44.89675" lon="6.750363">
        <time>1970-01-01T00:00:00+00:00</time>
        <ele>2301.0</ele>
      </trkpt>
      <trkpt lat="44.896724" lon="6.750309">
        <time>1970-01-01T00:00:00+00:00</time>
        <ele>2300.0</ele>
      </trkpt>
      <trkpt lat="44.896712" lon="6.750154">
        <time>1970-01-01T00:00:00+00:00</time>
        <ele>2300.0</ele>
      </trkpt>
      <trkpt lat="44.896666" lon="6.749995">
        <time>1970-01-01T00:00:00+00:00</time>
        <ele>2301.0</ele>
      </trkpt>
      <trkpt lat="44.896438" lon="6.74972">
        <time>1970-01-01T00:00:00+00:00</time>
        <ele>2302.0</ele>
      </trkpt>
      <trkpt lat="44.896211" lon="6.749692">
        <time>1970-01-01T00:00:00+00:00</time>
        <ele>2302.0</ele>
      </trkpt>
      <trkpt lat="44.895793" lon="6.749464">
        <time>1970-01-01T00:00:00+00:00</time>
        <ele>2301.0</ele>
      </trkpt>
      <trkpt lat="44.895498" lon="6.74973">
        <time>1970-01-01T00:00:00+00:00</time>
        <ele>2295.0</ele>
      </trkpt>
      <trkpt lat="44.895473" lon="6.75021">
        <time>1970-01-01T00:00:00+00:00</time>
        <ele>2289.0</ele>
      </trkpt>
      <trkpt lat="44.89545" lon="6.75021">
        <time>1970-01-01T00:00:00+00:00</time>
        <ele>2288.0</ele>
      </trkpt>
      <trkpt lat="44.895424" lon="6.75015">
        <time>1970-01-01T00:00:00+00:00</time>
        <ele>2288.0</ele>
      </trkpt>
      <trkpt lat="44.895355" lon="6.750092">
        <time>1970-01-01T00:00:00+00:00</time>
        <ele>2287.0</ele>
      </trkpt>
      <trkpt lat="44.89524" lon="6.750122">
        <time>1970-01-01T00:00:00+00:00</time>
        <ele>2284.0</ele>
      </trkpt>
      <trkpt lat="44.895061" lon="6.750392">
        <time>1970-01-01T00:00:00+00:00</time>
        <ele>2276.0</ele>
      </trkpt>
      <trkpt lat="44.895024" lon="6.750584">
        <time>1970-01-01T00:00:00+00:00</time>
        <ele>2273.0</ele>
      </trkpt>
      <trkpt lat="44.894952" lon="6.750738">
        <time>1970-01-01T00:00:00+00:00</time>
        <ele>2270.0</ele>
      </trkpt>
      <trkpt lat="44.894892" lon="6.751043">
        <time>1970-01-01T00:00:00+00:00</time>
        <ele>2269.0</ele>
      </trkpt>
      <trkpt lat="44.894791" lon="6.75123">
        <time>1970-01-01T00:00:00+00:00</time>
        <ele>2268.0</ele>
      </trkpt>
      <trkpt lat="44.8946" lon="6.75139">
        <time>1970-01-01T00:00:00+00:00</time>
        <ele>2263.0</ele>
      </trkpt>
      <trkpt lat="44.894519" lon="6.751622">
        <time>1970-01-01T00:00:00+00:00</time>
        <ele>2260.0</ele>
      </trkpt>
      <trkpt lat="44.894372" lon="6.751816">
        <time>1970-01-01T00:00:00+00:00</time>
        <ele>2256.0</ele>
      </trkpt>
      <trkpt lat="44.894314" lon="6.751764">
        <time>1970-01-01T00:00:00+00:00</time>
        <ele>2254.0</ele>
      </trkpt>
      <trkpt lat="44.894278" lon="6.751928">
        <time>1970-01-01T00:00:00+00:00</time>
        <ele>2255.0</ele>
      </trkpt>
      <trkpt lat="44.894072" lon="6.752071">
        <time>1970-01-01T00:00:00+00:00</time>
        <ele>2253.0</ele>
      </trkpt>
      <trkpt lat="44.894015" lon="6.752076">
        <time>1970-01-01T00:00:00+00:00</time>
        <ele>2252.0</ele>
      </trkpt>
      <trkpt lat="44.89393" lon="6.752021">
        <time>1970-01-01T00:00:00+00:00</time>
        <ele>2252.0</ele>
      </trkpt>
      <trkpt lat="44.893884" lon="6.751841">
        <time>1970-01-01T00:00:00+00:00</time>
        <ele>2250.0</ele>
      </trkpt>
      <trkpt lat="44.893792" lon="6.751791">
        <time>1970-01-01T00:00:00+00:00</time>
        <ele>2249.0</ele>
      </trkpt>
      <trkpt lat="44.893616" lon="6.751809">
        <time>1970-01-01T00:00:00+00:00</time>
        <ele>2247.0</ele>
      </trkpt>
      <trkpt lat="44.893524" lon="6.751894">
        <time>1970-01-01T00:00:00+00:00</time>
        <ele>2248.0</ele>
      </trkpt>
      <trkpt lat="44.893414" lon="6.751946">
        <time>1970-01-01T00:00:00+00:00</time>
        <ele>2247.0</ele>
      </trkpt>
      <trkpt lat="44.893207" lon="6.751941">
        <time>1970-01-01T00:00:00+00:00</time>
        <ele>2243.0</ele>
      </trkpt>
      <trkpt lat="44.892773" lon="6.75221">
        <time>1970-01-01T00:00:00+00:00</time>
        <ele>2238.0</ele>
      </trkpt>
      <trkpt lat="44.892562" lon="6.752393">
        <time>1970-01-01T00:00:00+00:00</time>
        <ele>2235.0</ele>
      </trkpt>
      <trkpt lat="44.892297" lon="6.752447">
        <time>1970-01-01T00:00:00+00:00</time>
        <ele>2231.0</ele>
      </trkpt>
      <trkpt lat="44.89224" lon="6.752543">
        <time>1970-01-01T00:00:00+00:00</time>
        <ele>2229.0</ele>
      </trkpt>
      <trkpt lat="44.892142" lon="6.752707">
        <time>1970-01-01T00:00:00+00:00</time>
        <ele>2226.0</ele>
      </trkpt>
      <trkpt lat="44.891622" lon="6.753133">
        <time>1970-01-01T00:00:00+00:00</time>
        <ele>2211.0</ele>
      </trkpt>
      <trkpt lat="44.89136" lon="6.753278">
        <time>1970-01-01T00:00:00+00:00</time>
        <ele>2203.0</ele>
      </trkpt>
      <trkpt lat="44.891226" lon="6.753296">
        <time>1970-01-01T00:00:00+00:00</time>
        <ele>2199.0</ele>
      </trkpt>
      <trkpt lat="44.891088" lon="6.753348">
        <time>1970-01-01T00:00:00+00:00</time>
        <ele>2194.0</ele>
      </trkpt>
      <trkpt lat="44.890986" lon="6.753276">
        <time>1970-01-01T00:00:00+00:00</time>
        <ele>2191.0</ele>
      </trkpt>
      <trkpt lat="44.890712" lon="6.752906">
        <time>1970-01-01T00:00:00+00:00</time>
        <ele>2184.0</ele>
      </trkpt>
      <trkpt lat="44.89068" lon="6.753241">
        <time>1970-01-01T00:00:00+00:00</time>
        <ele>2180.0</ele>
      </trkpt>
      <trkpt lat="44.890454" lon="6.753039">
        <time>1970-01-01T00:00:00+00:00</time>
        <ele>2173.0</ele>
      </trkpt>
      <trkpt lat="44.890369" lon="6.753193">
        <time>1970-01-01T00:00:00+00:00</time>
        <ele>2170.0</ele>
      </trkpt>
      <trkpt lat="44.890318" lon="6.753245">
        <time>1970-01-01T00:00:00+00:00</time>
        <ele>2169.0</ele>
      </trkpt>
      <trkpt lat="44.890173" lon="6.753395">
        <time>1970-01-01T00:00:00+00:00</time>
        <ele>2166.0</ele>
      </trkpt>
      <trkpt lat="44.889908" lon="6.753874">
        <time>1970-01-01T00:00:00+00:00</time>
        <ele>2160.0</ele>
      </trkpt>
      <trkpt lat="44.889611" lon="6.753787">
        <time>1970-01-01T00:00:00+00:00</time>
        <ele>2157.0</ele>
      </trkpt>
      <trkpt lat="44.889404" lon="6.753934">
        <time>1970-01-01T00:00:00+00:00</time>
        <ele>2153.0</ele>
      </trkpt>
      <trkpt lat="44.889335" lon="6.754144">
        <time>1970-01-01T00:00:00+00:00</time>
        <ele>2149.0</ele>
      </trkpt>
      <trkpt lat="44.889239" lon="6.754306">
        <time>1970-01-01T00:00:00+00:00</time>
        <ele>2146.0</ele>
      </trkpt>
      <trkpt lat="44.888759" lon="6.7548">
        <time>1970-01-01T00:00:00+00:00</time>
        <ele>2131.0</ele>
      </trkpt>
      <trkpt lat="44.888317" lon="6.754576">
        <time>1970-01-01T00:00:00+00:00</time>
        <ele>2122.0</ele>
      </trkpt>
      <trkpt lat="44.888177" lon="6.754366">
        <time>1970-01-01T00:00:00+00:00</time>
        <ele>2121.0</ele>
      </trkpt>
      <trkpt lat="44.888099" lon="6.754336">
        <time>1970-01-01T00:00:00+00:00</time>
        <ele>2121.0</ele>
      </trkpt>
      <trkpt lat="44.888031" lon="6.75443">
        <time>1970-01-01T00:00:00+00:00</time>
        <ele>2120.0</ele>
      </trkpt>
      <trkpt lat="44.888003" lon="6.754444">
        <time>1970-01-01T00:00:00+00:00</time>
        <ele>2120.0</ele>
      </trkpt>
      <trkpt lat="44.887937" lon="6.754533">
        <time>1970-01-01T00:00:00+00:00</time>
        <ele>2119.0</ele>
      </trkpt>
      <trkpt lat="44.887764" lon="6.754858">
        <time>1970-01-01T00:00:00+00:00</time>
        <ele>2115.0</ele>
      </trkpt>
      <trkpt lat="44.887672" lon="6.755074">
        <time>1970-01-01T00:00:00+00:00</time>
        <ele>2113.0</ele>
      </trkpt>
      <trkpt lat="44.887655" lon="6.755216">
        <time>1970-01-01T00:00:00+00:00</time>
        <ele>2112.0</ele>
      </trkpt>
      <trkpt lat="44.887551" lon="6.755254">
        <time>1970-01-01T00:00:00+00:00</time>
        <ele>2108.0</ele>
      </trkpt>
      <trkpt lat="44.887468" lon="6.755186">
        <time>1970-01-01T00:00:00+00:00</time>
        <ele>2104.0</ele>
      </trkpt>
      <trkpt lat="44.887437" lon="6.755203">
        <time>1970-01-01T00:00:00+00:00</time>
        <ele>2102.0</ele>
      </trkpt>
      <trkpt lat="44.887373" lon="6.755357">
        <time>1970-01-01T00:00:00+00:00</time>
        <ele>2098.0</ele>
      </trkpt>
      <trkpt lat="44.887233" lon="6.755607">
        <time>1970-01-01T00:00:00+00:00</time>
        <ele>2090.0</ele>
      </trkpt>
      <trkpt lat="44.887084" lon="6.755795">
        <time>1970-01-01T00:00:00+00:00</time>
        <ele>2082.0</ele>
      </trkpt>
      <trkpt lat="44.886917" lon="6.756067">
        <time>1970-01-01T00:00:00+00:00</time>
        <ele>2076.0</ele>
      </trkpt>
      <trkpt lat="44.886807" lon="6.756177">
        <time>1970-01-01T00:00:00+00:00</time>
        <ele>2073.0</ele>
      </trkpt>
      <trkpt lat="44.886749" lon="6.756262">
        <time>1970-01-01T00:00:00+00:00</time>
        <ele>2072.0</ele>
      </trkpt>
      <trkpt lat="44.886744" lon="6.756307">
        <time>1970-01-01T00:00:00+00:00</time>
        <ele>2072.0</ele>
      </trkpt>
      <trkpt lat="44.886655" lon="6.756304">
        <time>1970-01-01T00:00:00+00:00</time>
        <ele>2071.0</ele>
      </trkpt>
      <trkpt lat="44.886319" lon="6.755955">
        <time>1970-01-01T00:00:00+00:00</time>
        <ele>2066.0</ele>
      </trkpt>
      <trkpt lat="44.886201" lon="6.755688">
        <time>1970-01-01T00:00:00+00:00</time>
        <ele>2063.0</ele>
      </trkpt>
      <trkpt lat="44.886102" lon="6.755559">
        <time>1970-01-01T00:00:00+00:00</time>
        <ele>2061.0</ele>
      </trkpt>
      <trkpt lat="44.885851" lon="6.755344">
        <time>1970-01-01T00:00:00+00:00</time>
        <ele>2059.0</ele>
      </trkpt>
      <trkpt lat="44.885823" lon="6.755287">
        <time>1970-01-01T00:00:00+00:00</time>
        <ele>2059.0</ele>
      </trkpt>
      <trkpt lat="44.885153" lon="6.755823">
        <time>1970-01-01T00:00:00+00:00</time>
        <ele>2054.0</ele>
      </trkpt>
      <trkpt lat="44.884873" lon="6.755808">
        <time>1970-01-01T00:00:00+00:00</time>
        <ele>2051.0</ele>
      </trkpt>
      <trkpt lat="44.884325" lon="6.755648">
        <time>1970-01-01T00:00:00+00:00</time>
        <ele>2044.0</ele>
      </trkpt>
      <trkpt lat="44.884126" lon="6.755529">
        <time>1970-01-01T00:00:00+00:00</time>
        <ele>2040.0</ele>
      </trkpt>
      <trkpt lat="44.884041" lon="6.755516">
        <time>1970-01-01T00:00:00+00:00</time>
        <ele>2038.0</ele>
      </trkpt>
      <trkpt lat="44.883907" lon="6.755431">
        <time>1970-01-01T00:00:00+00:00</time>
        <ele>2036.0</ele>
      </trkpt>
      <trkpt lat="44.883846" lon="6.755434">
        <time>1970-01-01T00:00:00+00:00</time>
        <ele>2035.0</ele>
      </trkpt>
      <trkpt lat="44.883617" lon="6.755057">
        <time>1970-01-01T00:00:00+00:00</time>
        <ele>2027.0</ele>
      </trkpt>
      <trkpt lat="44.88356" lon="6.75502">
        <time>1970-01-01T00:00:00+00:00</time>
        <ele>2025.0</ele>
      </trkpt>
      <trkpt lat="44.883337" lon="6.75462">
        <time>1970-01-01T00:00:00+00:00</time>
        <ele>2016.0</ele>
      </trkpt>
      <trkpt lat="44.88324" lon="6.754401">
        <time>1970-01-01T00:00:00+00:00</time>
        <ele>2010.0</ele>
      </trkpt>
      <trkpt lat="44.883162" lon="6.754286">
        <time>1970-01-01T00:00:00+00:00</time>
        <ele>2006.0</ele>
      </trkpt>
      <trkpt lat="44.883095" lon="6.754062">
        <time>1970-01-01T00:00:00+00:00</time>
        <ele>2001.0</ele>
      </trkpt>
      <trkpt lat="44.882973" lon="6.753887">
        <time>1970-01-01T00:00:00+00:00</time>
        <ele>1994.0</ele>
      </trkpt>
      <trkpt lat="44.882881" lon="6.753792">
        <time>1970-01-01T00:00:00+00:00</time>
        <ele>1989.0</ele>
      </trkpt>
      <trkpt lat="44.882625" lon="6.7537">
        <time>1970-01-01T00:00:00+00:00</time>
        <ele>1980.0</ele>
      </trkpt>
      <trkpt lat="44.882575" lon="6.75364">
        <time>1970-01-01T00:00:00+00:00</time>
        <ele>1979.0</ele>
      </trkpt>
      <trkpt lat="44.882554" lon="6.753545">
        <time>1970-01-01T00:00:00+00:00</time>
        <ele>1980.0</ele>
      </trkpt>
      <trkpt lat="44.882517" lon="6.753475">
        <time>1970-01-01T00:00:00+00:00</time>
        <ele>1979.0</ele>
      </trkpt>
      <trkpt lat="44.882491" lon="6.753478">
        <time>1970-01-01T00:00:00+00:00</time>
        <ele>1979.0</ele>
      </trkpt>
      <trkpt lat="44.882491" lon="6.753351">
        <time>1970-01-01T00:00:00+00:00</time>
        <ele>1979.0</ele>
      </trkpt>
      <trkpt lat="44.882473" lon="6.753336">
        <time>1970-01-01T00:00:00+00:00</time>
        <ele>1978.0</ele>
      </trkpt>
      <trkpt lat="44.882441" lon="6.753368">
        <time>1970-01-01T00:00:00+00:00</time>
        <ele>1977.0</ele>
      </trkpt>
      <trkpt lat="44.88243" lon="6.753308">
        <time>1970-01-01T00:00:00+00:00</time>
        <ele>1977.0</ele>
      </trkpt>
      <trkpt lat="44.882289" lon="6.753193">
        <time>1970-01-01T00:00:00+00:00</time>
        <ele>1971.0</ele>
      </trkpt>
      <trkpt lat="44.88222" lon="6.753193">
        <time>1970-01-01T00:00:00+00:00</time>
        <ele>1969.0</ele>
      </trkpt>
      <trkpt lat="44.882128" lon="6.753163">
        <time>1970-01-01T00:00:00+00:00</time>
        <ele>1966.0</ele>
      </trkpt>
      <trkpt lat="44.882095" lon="6.753181">
        <time>1970-01-01T00:00:00+00:00</time>
        <ele>1965.0</ele>
      </trkpt>
      <trkpt lat="44.882024" lon="6.753148">
        <time>1970-01-01T00:00:00+00:00</time>
        <ele>1963.0</ele>
      </trkpt>
      <trkpt lat="44.881992" lon="6.753064">
        <time>1970-01-01T00:00:00+00:00</time>
        <ele>1962.0</ele>
      </trkpt>
      <trkpt lat="44.881937" lon="6.753021">
        <time>1970-01-01T00:00:00+00:00</time>
        <ele>1960.0</ele>
      </trkpt>
      <trkpt lat="44.881884" lon="6.753044">
        <time>1970-01-01T00:00:00+00:00</time>
        <ele>1958.0</ele>
      </trkpt>
      <trkpt lat="44.881592" lon="6.752797">
        <time>1970-01-01T00:00:00+00:00</time>
        <ele>1942.0</ele>
      </trkpt>
      <trkpt lat="44.881573" lon="6.752747">
        <time>1970-01-01T00:00:00+00:00</time>
        <ele>1941.0</ele>
      </trkpt>
      <trkpt lat="44.881564" lon="6.752517">
        <time>1970-01-01T00:00:00+00:00</time>
        <ele>1939.0</ele>
      </trkpt>
      <trkpt lat="44.881524" lon="6.752487">
        <time>1970-01-01T00:00:00+00:00</time>
        <ele>1937.0</ele>
      </trkpt>
      <trkpt lat="44.881516" lon="6.752398">
        <time>1970-01-01T00:00:00+00:00</time>
        <ele>1935.0</ele>
      </trkpt>
      <trkpt lat="44.88149" lon="6.752383">
        <time>1970-01-01T00:00:00+00:00</time>
        <ele>1934.0</ele>
      </trkpt>
      <trkpt lat="44.881453" lon="6.752405">
        <time>1970-01-01T00:00:00+00:00</time>
        <ele>1933.0</ele>
      </trkpt>
      <trkpt lat="44.88143" lon="6.752385">
        <time>1970-01-01T00:00:00+00:00</time>
        <ele>1931.0</ele>
      </trkpt>
      <trkpt lat="44.881469" lon="6.75226">
        <time>1970-01-01T00:00:00+00:00</time>
        <ele>1931.0</ele>
      </trkpt>
      <trkpt lat="44.881451" lon="6.752248">
        <time>1970-01-01T00:00:00+00:00</time>
        <ele>1930.0</ele>
      </trkpt>
      <trkpt lat="44.881395" lon="6.752303">
        <time>1970-01-01T00:00:00+00:00</time>
        <ele>1929.0</ele>
      </trkpt>
      <trkpt lat="44.881002" lon="6.752133">
        <time>1970-01-01T00:00:00+00:00</time>
        <ele>1917.0</ele>
      </trkpt>
      <trkpt lat="44.880924" lon="6.751998">
        <time>1970-01-01T00:00:00+00:00</time>
        <ele>1916.0</ele>
      </trkpt>
      <trkpt lat="44.880626" lon="6.751729">
        <time>1970-01-01T00:00:00+00:00</time>
        <ele>1912.0</ele>
      </trkpt>
      <trkpt lat="44.880353" lon="6.751551">
        <time>1970-01-01T00:00:00+00:00</time>
        <ele>1910.0</ele>
      </trkpt>
      <trkpt lat="44.88021" lon="6.751481">
        <time>1970-01-01T00:00:00+00:00</time>
        <ele>1909.0</ele>
      </trkpt>
      <trkpt lat="44.88014" lon="6.751263">
        <time>1970-01-01T00:00:00+00:00</time>
        <ele>1908.0</ele>
      </trkpt>
      <trkpt lat="44.880141" lon="6.750642">
        <time>1970-01-01T00:00:00+00:00</time>
        <ele>1907.0</ele>
      </trkpt>
      <trkpt lat="44.880087" lon="6.750522">
        <time>1970-01-01T00:00:00+00:00</time>
        <ele>1906.0</ele>
      </trkpt>
      <trkpt lat="44.880027" lon="6.750178">
        <time>1970-01-01T00:00:00+00:00</time>
        <ele>1905.0</ele>
      </trkpt>
      <trkpt lat="44.879899" lon="6.750065">
        <time>1970-01-01T00:00:00+00:00</time>
        <ele>1904.0</ele>
      </trkpt>
      <trkpt lat="44.879849" lon="6.749967">
        <time>1970-01-01T00:00:00+00:00</time>
        <ele>1903.0</ele>
      </trkpt>
      <trkpt lat="44.879693" lon="6.749487">
        <time>1970-01-01T00:00:00+00:00</time>
        <ele>1898.0</ele>
      </trkpt>
      <trkpt lat="44.879609" lon="6.748709">
        <time>1970-01-01T00:00:00+00:00</time>
        <ele>1894.0</ele>
      </trkpt>
      <trkpt lat="44.879542" lon="6.748478">
        <time>1970-01-01T00:00:00+00:00</time>
        <ele>1891.0</ele>
      </trkpt>
      <trkpt lat="44.879402" lon="6.748125">
        <time>1970-01-01T00:00:00+00:00</time>
        <ele>1887.0</ele>
      </trkpt>
      <trkpt lat="44.879262" lon="6.747636">
        <time>1970-01-01T00:00:00+00:00</time>
        <ele>1887.0</ele>
      </trkpt>
      <trkpt lat="44.879215" lon="6.747556">
        <time>1970-01-01T00:00:00+00:00</time>
        <ele>1886.0</ele>
      </trkpt>
      <trkpt lat="44.879135" lon="6.747504">
        <time>1970-01-01T00:00:00+00:00</time>
        <ele>1886.0</ele>
      </trkpt>
      <trkpt lat="44.878964" lon="6.74744">
        <time>1970-01-01T00:00:00+00:00</time>
        <ele>1883.0</ele>
      </trkpt>
      <trkpt lat="44.878164" lon="6.746554">
        <time>1970-01-01T00:00:00+00:00</time>
        <ele>1885.0</ele>
      </trkpt>
      <trkpt lat="44.878114" lon="6.746441">
        <time>1970-01-01T00:00:00+00:00</time>
        <ele>1885.0</ele>
      </trkpt>
      <trkpt lat="44.878142" lon="6.746074">
        <time>1970-01-01T00:00:00+00:00</time>
        <ele>1889.0</ele>
      </trkpt>
      <trkpt lat="44.878188" lon="6.745814">
        <time>1970-01-01T00:00:00+00:00</time>
        <ele>1890.0</ele>
      </trkpt>
      <trkpt lat="44.878217" lon="6.745631">
        <time>1970-01-01T00:00:00+00:00</time>
        <ele>1889.0</ele>
      </trkpt>
    </trkseg>
  </trk>
</gpx>
